Time,TemperatureF,DewpointF,PressureIn,WindDirection,WindDirectionDegrees,WindSpeedMPH,WindSpeedGustMPH,Humidity,HourlyPrecipIn,Conditions,Clouds,dailyrainin,SolarRadiationWatts/m^2,SoftwareType,DateUTC
2013-03-17 00:00:00,19.7,17.0,29.98,North,356,0.0,1.0,89,0.00,,,0.00,0,WxPro DR1,2013-03-17 04:00:00,
2013-03-17 00:05:00,19.7,17.0,29.98,North,356,0.0,1.0,89,0.00,,,0.00,0,WxPro DR1,2013-03-17 04:05:00,
2013-03-17 00:10:00,19.7,17.0,29.98,North,356,0.0,0.0,89,0.00,,,0.00,0,WxPro DR1,2013-03-17 04:10:00,
2013-03-17 00:15:00,19.7,17.0,29.98,North,356,0.0,0.0,89,0.00,,,0.00,0,WxPro DR1,2013-03-17 04:15:00,
2013-03-17 00:20:00,19.7,17.2,29.98,North,356,0.0,0.0,90,0.00,,,0.00,0,WxPro DR1,2013-03-17 04:20:00,
2013-03-17 00:25:00,19.7,17.2,29.98,North,356,0.0,1.0,90,0.00,,,0.00,0,WxPro DR1,2013-03-17 04:25:00,
2013-03-17 00:30:00,19.7,17.2,29.99,North,356,0.0,1.0,90,0.00,,,0.00,0,WxPro DR1,2013-03-17 04:30:00,
2013-03-17 00:35:00,19.7,17.2,29.99,North,356,0.0,0.0,90,0.00,,,0.00,0,WxPro DR1,2013-03-17 04:35:00,
2013-03-17 00:40:00,19.7,17.2,29.99,North,356,0.0,1.0,90,0.00,,,0.00,0,WxPro DR1,2013-03-17 04:40:00,
2013-03-17 00:45:00,19.7,17.2,29.99,North,356,0.0,1.0,90,0.00,,,0.00,0,WxPro DR1,2013-03-17 04:45:00,
2013-03-17 00:50:00,19.7,17.2,29.99,North,356,0.0,0.0,90,0.00,,,0.00,0,WxPro DR1,2013-03-17 04:50:00,
2013-03-17 00:55:00,19.6,17.2,29.99,North,356,0.0,1.0,90,0.00,,,0.00,0,WxPro DR1,2013-03-17 04:55:00,
2013-03-17 01:00:00,19.7,17.2,29.99,North,356,0.0,1.0,90,0.00,,,0.00,0,WxPro DR1,2013-03-17 05:00:00,
2013-03-17 01:05:00,19.7,17.2,29.99,North,356,0.0,0.0,90,0.00,,,0.00,0,WxPro DR1,2013-03-17 05:05:00,
2013-03-17 01:10:00,19.7,17.2,29.99,North,356,0.0,0.0,90,0.00,,,0.00,0,WxPro DR1,2013-03-17 05:10:00,
2013-03-17 01:15:00,19.7,17.2,29.99,North,356,0.0,1.0,90,0.00,,,0.00,0,WxPro DR1,2013-03-17 05:15:00,
2013-03-17 01:20:00,19.7,17.2,29.99,North,356,0.0,1.0,90,0.00,,,0.00,0,WxPro DR1,2013-03-17 05:20:00,
2013-03-17 01:25:00,19.8,17.3,30.00,North,356,0.0,1.0,90,0.00,,,0.00,0,WxPro DR1,2013-03-17 05:25:00,
2013-03-17 01:30:00,19.9,17.4,30.00,North,356,0.0,1.0,90,0.00,,,0.00,0,WxPro DR1,2013-03-17 05:30:00,
2013-03-17 01:35:00,20.0,17.5,30.00,NNW,344,1.0,2.0,90,0.00,,,0.00,0,WxPro DR1,2013-03-17 05:35:00,
2013-03-17 01:40:00,20.2,17.7,30.01,SW,232,0.0,3.0,90,0.00,,,0.00,0,WxPro DR1,2013-03-17 05:40:00,
2013-03-17 01:45:00,20.3,17.9,30.01,SW,232,0.0,3.0,90,0.00,,,0.00,0,WxPro DR1,2013-03-17 05:45:00,
2013-03-17 01:50:00,20.4,17.9,30.02,SW,229,1.0,3.0,90,0.00,,,0.00,0,WxPro DR1,2013-03-17 05:50:00,
2013-03-17 01:55:00,20.4,17.9,30.02,SW,230,0.0,3.0,90,0.00,,,0.00,0,WxPro DR1,2013-03-17 05:55:00,
2013-03-17 02:00:00,20.4,18.0,30.02,SW,232,2.0,2.0,90,0.00,,,0.00,0,WxPro DR1,2013-03-17 06:00:00,
2013-03-17 02:05:00,20.5,18.0,30.03,SW,232,0.0,3.0,90,0.00,,,0.00,0,WxPro DR1,2013-03-17 06:05:00,
2013-03-17 02:10:00,20.6,18.1,30.03,WSW,248,0.0,4.0,90,0.00,,,0.00,0,WxPro DR1,2013-03-17 06:10:00,
2013-03-17 02:15:00,20.7,18.0,30.03,West,261,1.0,4.0,89,0.00,,,0.00,0,WxPro DR1,2013-03-17 06:15:00,
2013-03-17 02:20:00,20.8,18.1,30.02,SSW,205,2.0,7.0,89,0.00,,,0.00,0,WxPro DR1,2013-03-17 06:20:00,
2013-03-17 02:25:00,21.0,18.3,30.02,WSW,248,0.0,7.0,89,0.00,,,0.00,0,WxPro DR1,2013-03-17 06:25:00,
2013-03-17 02:30:00,21.2,18.2,30.02,SW,228,0.0,5.0,88,0.00,,,0.00,0,WxPro DR1,2013-03-17 06:30:00,
2013-03-17 02:35:00,21.3,18.3,30.02,SW,228,1.0,5.0,88,0.00,,,0.00,0,WxPro DR1,2013-03-17 06:35:00,
2013-03-17 02:40:00,21.2,18.2,30.02,SW,223,0.0,2.0,88,0.00,,,0.00,0,WxPro DR1,2013-03-17 06:40:00,
2013-03-17 02:45:00,21.2,17.9,30.02,SW,225,0.0,2.0,87,0.00,,,0.00,0,WxPro DR1,2013-03-17 06:45:00,
2013-03-17 02:50:00,21.2,18.0,30.02,West,271,0.0,4.0,87,0.00,,,0.00,0,WxPro DR1,2013-03-17 06:50:00,
2013-03-17 02:55:00,21.3,18.0,30.02,West,271,0.0,4.0,87,0.00,,,0.00,0,WxPro DR1,2013-03-17 06:55:00,
2013-03-17 03:00:00,21.4,18.1,30.02,West,263,1.0,4.0,87,0.00,,,0.00,0,WxPro DR1,2013-03-17 07:00:00,
2013-03-17 03:05:00,21.4,17.9,30.02,WSW,240,0.0,4.0,86,0.00,,,0.00,0,WxPro DR1,2013-03-17 07:05:00,
2013-03-17 03:10:00,21.4,17.9,30.02,WSW,240,1.0,4.0,86,0.00,,,0.00,0,WxPro DR1,2013-03-17 07:10:00,
2013-03-17 03:15:00,21.3,17.8,30.02,WSW,240,0.0,3.0,86,0.00,,,0.00,0,WxPro DR1,2013-03-17 07:15:00,
2013-03-17 03:20:00,21.2,17.7,30.02,WSW,240,0.0,3.0,86,0.00,,,0.00,0,WxPro DR1,2013-03-17 07:20:00,
2013-03-17 03:25:00,21.2,17.7,30.02,WSW,241,0.0,3.0,86,0.00,,,0.00,0,WxPro DR1,2013-03-17 07:25:00,
2013-03-17 03:30:00,21.3,17.8,30.02,WSW,242,0.0,3.0,86,0.00,,,0.00,0,WxPro DR1,2013-03-17 07:30:00,
2013-03-17 03:35:00,21.3,17.8,30.03,WSW,242,0.0,3.0,86,0.00,,,0.00,0,WxPro DR1,2013-03-17 07:35:00,
2013-03-17 03:40:00,21.5,17.9,30.03,WSW,242,2.0,3.0,86,0.00,,,0.00,0,WxPro DR1,2013-03-17 07:40:00,
2013-03-17 03:45:00,21.6,18.1,30.03,SW,219,0.0,3.0,86,0.00,,,0.00,0,WxPro DR1,2013-03-17 07:45:00,
2013-03-17 03:50:00,21.8,18.4,30.03,SW,221,1.0,3.0,86,0.00,,,0.00,0,WxPro DR1,2013-03-17 07:50:00,
2013-03-17 03:55:00,22.0,18.5,30.03,West,271,0.0,3.0,86,0.00,,,0.00,0,WxPro DR1,2013-03-17 07:55:00,
2013-03-17 04:00:00,22.1,18.6,30.03,West,271,0.0,4.0,86,0.00,,,0.00,0,WxPro DR1,2013-03-17 08:00:00,
2013-03-17 04:05:00,22.3,18.8,30.03,West,279,0.0,4.0,86,0.00,,,0.00,0,WxPro DR1,2013-03-17 08:05:00,
2013-03-17 04:10:00,22.4,18.9,30.03,West,280,0.0,4.0,86,0.00,,,0.00,0,WxPro DR1,2013-03-17 08:10:00,
2013-03-17 04:15:00,22.5,19.0,30.03,West,277,1.0,3.0,86,0.00,,,0.00,0,WxPro DR1,2013-03-17 08:15:00,
2013-03-17 04:20:00,22.6,19.1,30.03,West,277,2.0,4.0,86,0.00,,,0.00,0,WxPro DR1,2013-03-17 08:20:00,
2013-03-17 04:25:00,22.7,19.2,30.04,West,278,0.0,4.0,86,0.00,,,0.00,0,WxPro DR1,2013-03-17 08:25:00,
2013-03-17 04:30:00,22.8,19.3,30.04,West,277,0.0,4.0,86,0.00,,,0.00,0,WxPro DR1,2013-03-17 08:30:00,
2013-03-17 04:35:00,22.9,19.4,30.04,West,276,1.0,4.0,86,0.00,,,0.00,0,WxPro DR1,2013-03-17 08:35:00,
2013-03-17 04:40:00,23.0,19.4,30.04,West,277,1.0,6.0,86,0.00,,,0.00,0,WxPro DR1,2013-03-17 08:40:00,
2013-03-17 04:45:00,23.0,19.5,30.04,West,268,3.0,6.0,86,0.00,,,0.00,0,WxPro DR1,2013-03-17 08:45:00,
2013-03-17 04:50:00,22.9,19.4,30.04,West,268,1.0,6.0,86,0.00,,,0.00,0,WxPro DR1,2013-03-17 08:50:00,
2013-03-17 04:55:00,22.9,19.4,30.04,WSW,256,2.0,6.0,86,0.00,,,0.00,0,WxPro DR1,2013-03-17 08:55:00,
2013-03-17 05:00:00,22.9,19.6,30.04,WSW,245,0.0,6.0,87,0.00,,,0.00,0,WxPro DR1,2013-03-17 09:00:00,
2013-03-17 05:05:00,22.8,19.5,30.05,West,271,3.0,6.0,87,0.00,,,0.00,0,WxPro DR1,2013-03-17 09:05:00,
2013-03-17 05:10:00,22.8,19.8,30.05,WSW,248,3.0,6.0,88,0.00,,,0.00,0,WxPro DR1,2013-03-17 09:10:00,
2013-03-17 05:15:00,22.7,19.7,30.05,WSW,248,0.0,6.0,88,0.00,,,0.00,0,WxPro DR1,2013-03-17 09:15:00,
2013-03-17 05:20:00,22.7,20.0,30.06,WSW,253,0.0,5.0,89,0.00,,,0.00,0,WxPro DR1,2013-03-17 09:20:00,
2013-03-17 05:25:00,22.7,20.0,30.06,WSW,254,2.0,5.0,89,0.00,,,0.00,0,WxPro DR1,2013-03-17 09:25:00,
2013-03-17 05:30:00,22.7,20.0,30.06,WSW,253,0.0,4.0,89,0.00,,,0.00,0,WxPro DR1,2013-03-17 09:30:00,
2013-03-17 05:35:00,22.7,20.2,30.07,WSW,253,2.0,4.0,90,0.00,,,0.00,0,WxPro DR1,2013-03-17 09:35:00,
2013-03-17 05:40:00,22.7,20.2,30.07,WSW,254,1.0,4.0,90,0.00,,,0.00,0,WxPro DR1,2013-03-17 09:40:00,
2013-03-17 05:45:00,22.7,20.2,30.07,WSW,254,2.0,5.0,90,0.00,,,0.00,0,WxPro DR1,2013-03-17 09:45:00,
2013-03-17 05:50:00,22.8,20.3,30.07,West,275,1.0,5.0,90,0.00,,,0.00,0,WxPro DR1,2013-03-17 09:50:00,
2013-03-17 05:55:00,22.8,20.3,30.07,West,275,1.0,4.0,90,0.00,,,0.00,0,WxPro DR1,2013-03-17 09:55:00,
2013-03-17 06:00:00,22.9,20.4,30.07,West,273,0.0,3.0,90,0.00,,,0.00,0,WxPro DR1,2013-03-17 10:00:00,
2013-03-17 06:05:00,22.9,20.7,30.07,West,272,1.0,3.0,91,0.00,,,0.00,0,WxPro DR1,2013-03-17 10:05:00,
2013-03-17 06:10:00,23.0,20.8,30.07,West,271,0.0,3.0,91,0.00,,,0.00,0,WxPro DR1,2013-03-17 10:10:00,
2013-03-17 06:15:00,23.0,20.8,30.08,West,271,0.0,3.0,91,0.00,,,0.00,0,WxPro DR1,2013-03-17 10:15:00,
2013-03-17 06:20:00,23.0,20.7,30.08,West,271,0.0,3.0,91,0.00,,,0.00,0,WxPro DR1,2013-03-17 10:20:00,
2013-03-17 06:25:00,22.9,20.6,30.08,West,271,0.0,2.0,91,0.00,,,0.00,0,WxPro DR1,2013-03-17 10:25:00,
2013-03-17 06:30:00,22.7,20.5,30.08,West,271,0.0,2.0,91,0.00,,,0.00,0,WxPro DR1,2013-03-17 10:30:00,
2013-03-17 06:35:00,22.6,20.4,30.08,West,271,0.0,2.0,91,0.00,,,0.00,0,WxPro DR1,2013-03-17 10:35:00,
2013-03-17 06:40:00,22.5,20.2,30.09,West,271,0.0,1.0,91,0.00,,,0.00,0,WxPro DR1,2013-03-17 10:40:00,
2013-03-17 06:45:00,22.3,20.0,30.09,West,272,0.0,0.0,91,0.00,,,0.00,0,WxPro DR1,2013-03-17 10:45:00,
2013-03-17 06:50:00,22.0,19.8,30.09,West,271,0.0,0.0,91,0.00,,,0.00,0,WxPro DR1,2013-03-17 10:50:00,
2013-03-17 06:55:00,21.9,19.6,30.09,West,271,0.0,0.0,91,0.00,,,0.00,0,WxPro DR1,2013-03-17 10:55:00,
2013-03-17 07:00:00,21.8,19.7,30.09,West,272,0.0,0.0,92,0.00,,,0.00,0,WxPro DR1,2013-03-17 11:00:00,
2013-03-17 07:05:00,21.8,19.8,30.10,West,271,0.0,0.0,92,0.00,,,0.00,0,WxPro DR1,2013-03-17 11:05:00,
2013-03-17 07:10:00,21.7,19.8,30.10,West,271,0.0,0.0,92,0.00,,,0.00,0,WxPro DR1,2013-03-17 11:10:00,
2013-03-17 07:15:00,21.6,19.6,30.10,West,271,0.0,0.0,92,0.00,,,0.00,0,WxPro DR1,2013-03-17 11:15:00,
2013-03-17 07:20:00,21.4,19.4,30.11,West,271,0.0,0.0,92,0.00,,,0.00,0,WxPro DR1,2013-03-17 11:20:00,
2013-03-17 07:25:00,21.2,19.3,30.11,West,271,0.0,0.0,92,0.00,,,0.00,0,WxPro DR1,2013-03-17 11:25:00,
2013-03-17 07:30:00,21.2,19.2,30.11,West,272,0.0,0.0,92,0.00,,,0.00,7,WxPro DR1,2013-03-17 11:30:00,
2013-03-17 07:35:00,21.3,19.3,30.11,West,271,0.0,0.0,92,0.00,,,0.00,11,WxPro DR1,2013-03-17 11:35:00,
2013-03-17 07:40:00,21.5,19.6,30.11,West,271,0.0,0.0,92,0.00,,,0.00,14,WxPro DR1,2013-03-17 11:40:00,
2013-03-17 07:45:00,21.7,19.7,30.12,West,271,0.0,0.0,92,0.00,,,0.00,18,WxPro DR1,2013-03-17 11:45:00,
2013-03-17 07:50:00,21.8,19.9,30.12,West,271,0.0,0.0,92,0.00,,,0.00,25,WxPro DR1,2013-03-17 11:50:00,
2013-03-17 07:55:00,22.0,20.3,30.12,West,272,0.0,0.0,93,0.00,,,0.00,25,WxPro DR1,2013-03-17 11:55:00,
2013-03-17 08:00:00,22.2,20.5,30.13,West,271,0.0,1.0,93,0.00,,,0.00,23,WxPro DR1,2013-03-17 12:00:00,
2013-03-17 08:05:00,22.5,20.8,30.12,West,271,0.0,1.0,93,0.00,,,0.00,25,WxPro DR1,2013-03-17 12:05:00,
2013-03-17 08:10:00,22.7,21.0,30.13,West,271,0.0,1.0,93,0.00,,,0.00,28,WxPro DR1,2013-03-17 12:10:00,
2013-03-17 08:15:00,23.0,21.2,30.13,West,271,0.0,3.0,93,0.00,,,0.00,33,WxPro DR1,2013-03-17 12:15:00,
2013-03-17 08:20:00,23.1,21.4,30.13,West,271,1.0,3.0,93,0.00,,,0.00,42,WxPro DR1,2013-03-17 12:20:00,
2013-03-17 08:25:00,23.3,21.6,30.13,West,271,0.0,3.0,93,0.00,,,0.00,49,WxPro DR1,2013-03-17 12:25:00,
2013-03-17 08:30:00,23.5,21.8,30.13,West,272,0.0,3.0,93,0.00,,,0.00,63,WxPro DR1,2013-03-17 12:30:00,
2013-03-17 08:35:00,23.6,21.9,30.14,West,273,3.0,4.0,93,0.00,,,0.00,72,WxPro DR1,2013-03-17 12:35:00,
2013-03-17 08:40:00,23.8,22.1,30.14,West,271,4.0,4.0,93,0.00,,,0.00,86,WxPro DR1,2013-03-17 12:40:00,
2013-03-17 08:45:00,23.9,22.2,30.14,West,272,0.0,5.0,93,0.00,,,0.00,74,WxPro DR1,2013-03-17 12:45:00,
2013-03-17 08:50:00,24.1,22.3,30.14,West,271,1.0,5.0,93,0.00,,,0.00,118,WxPro DR1,2013-03-17 12:50:00,
2013-03-17 08:55:00,24.3,22.3,30.15,West,269,0.0,5.0,92,0.00,,,0.00,97,WxPro DR1,2013-03-17 12:55:00,
2013-03-17 09:00:00,24.5,22.5,30.15,West,271,0.0,4.0,92,0.00,,,0.00,118,WxPro DR1,2013-03-17 13:00:00,
2013-03-17 09:05:00,24.6,22.6,30.16,NW,317,3.0,5.0,92,0.00,,,0.00,107,WxPro DR1,2013-03-17 13:05:00,
2013-03-17 09:10:00,24.6,22.4,30.16,West,265,2.0,5.0,91,0.00,,,0.00,118,WxPro DR1,2013-03-17 13:10:00,
2013-03-17 09:15:00,24.7,22.5,30.16,NW,319,2.0,5.0,91,0.00,,,0.00,102,WxPro DR1,2013-03-17 13:15:00,
2013-03-17 09:20:00,24.7,22.5,30.16,NW,317,2.0,5.0,91,0.00,,,0.00,107,WxPro DR1,2013-03-17 13:20:00,
2013-03-17 09:25:00,25.0,22.8,30.16,West,274,2.0,5.0,91,0.00,,,0.00,167,WxPro DR1,2013-03-17 13:25:00,
2013-03-17 09:30:00,25.2,22.7,30.16,West,267,1.0,5.0,90,0.00,,,0.00,258,WxPro DR1,2013-03-17 13:30:00,
2013-03-17 09:35:00,25.2,22.7,30.16,WSW,241,1.0,6.0,90,0.00,,,0.00,102,WxPro DR1,2013-03-17 13:35:00,
2013-03-17 09:40:00,25.1,22.6,30.17,WSW,241,4.0,6.0,90,0.00,,,0.00,232,WxPro DR1,2013-03-17 13:40:00,
2013-03-17 09:45:00,25.3,22.6,30.17,West,268,5.0,6.0,89,0.00,,,0.00,404,WxPro DR1,2013-03-17 13:45:00,
2013-03-17 09:50:00,25.8,23.0,30.17,SW,233,3.0,6.0,89,0.00,,,0.00,387,WxPro DR1,2013-03-17 13:50:00,
2013-03-17 09:55:00,26.2,23.1,30.17,SSW,209,3.0,5.0,88,0.00,,,0.00,243,WxPro DR1,2013-03-17 13:55:00,
2013-03-17 10:00:00,26.7,23.9,30.17,WNW,282,5.0,5.0,89,0.00,,,0.00,570,WxPro DR1,2013-03-17 14:00:00,
2013-03-17 10:05:00,27.5,24.3,30.17,SW,221,2.0,6.0,88,0.00,,,0.00,374,WxPro DR1,2013-03-17 14:05:00,
2013-03-17 10:10:00,27.4,24.1,30.18,WSW,257,7.0,7.0,87,0.00,,,0.00,225,WxPro DR1,2013-03-17 14:10:00,
2013-03-17 10:15:00,27.2,23.3,30.18,NW,326,2.0,7.0,85,0.00,,,0.00,128,WxPro DR1,2013-03-17 14:15:00,
2013-03-17 10:20:00,27.0,23.4,30.18,West,280,0.0,7.0,86,0.00,,,0.00,135,WxPro DR1,2013-03-17 14:20:00,
2013-03-17 10:25:00,26.9,23.3,30.18,West,280,1.0,5.0,86,0.00,,,0.00,155,WxPro DR1,2013-03-17 14:25:00,
2013-03-17 10:30:00,26.5,23.2,30.18,WSW,249,4.0,7.0,87,0.00,,,0.00,141,WxPro DR1,2013-03-17 14:30:00,
2013-03-17 10:35:00,26.3,23.2,30.18,WNW,300,0.0,7.0,88,0.00,,,0.00,134,WxPro DR1,2013-03-17 14:35:00,
2013-03-17 10:40:00,26.2,23.4,30.18,WNW,300,0.0,7.0,89,0.00,,,0.00,181,WxPro DR1,2013-03-17 14:40:00,
2013-03-17 10:45:00,26.5,24.0,30.18,West,281,4.0,6.0,90,0.00,,,0.00,237,WxPro DR1,2013-03-17 14:45:00,
2013-03-17 10:50:00,26.5,24.0,30.18,SW,232,2.0,6.0,90,0.00,,,0.00,234,WxPro DR1,2013-03-17 14:50:00,
2013-03-17 10:55:00,26.5,24.0,30.19,West,280,0.0,7.0,90,0.00,,,0.00,251,WxPro DR1,2013-03-17 14:55:00,
2013-03-17 11:00:00,26.6,24.1,30.19,WSW,258,3.0,7.0,90,0.00,,,0.00,220,WxPro DR1,2013-03-17 15:00:00,
2013-03-17 11:05:00,26.7,23.9,30.19,NW,312,3.0,10.0,89,0.00,,,0.00,234,WxPro DR1,2013-03-17 15:05:00,
2013-03-17 11:10:00,26.9,23.8,30.19,WSW,237,2.0,10.0,88,0.00,,,0.00,622,WxPro DR1,2013-03-17 15:10:00,
2013-03-17 11:15:00,27.4,24.3,30.19,WNW,286,3.0,7.0,88,0.00,,,0.00,390,WxPro DR1,2013-03-17 15:15:00,
2013-03-17 11:20:00,27.9,24.8,30.19,West,271,5.0,11.0,88,0.00,,,0.00,424,WxPro DR1,2013-03-17 15:20:00,
2013-03-17 11:25:00,28.1,24.9,30.19,WNW,282,3.0,11.0,87,0.00,,,0.00,613,WxPro DR1,2013-03-17 15:25:00,
2013-03-17 11:30:00,28.3,25.2,30.19,WNW,294,0.0,10.0,88,0.00,,,0.00,795,WxPro DR1,2013-03-17 15:30:00,
2013-03-17 11:35:00,28.8,25.6,30.20,West,271,3.0,10.0,88,0.00,,,0.00,870,WxPro DR1,2013-03-17 15:35:00,
2013-03-17 11:40:00,29.1,25.4,30.20,NNW,342,5.0,10.0,86,0.01,,,0.01,942,WxPro DR1,2013-03-17 15:40:00,
2013-03-17 11:45:00,29.4,25.6,30.20,North,356,5.0,10.0,86,0.01,,,0.01,105,WxPro DR1,2013-03-17 15:45:00,
2013-03-17 11:50:00,28.5,24.6,30.21,NNE,14,2.0,11.0,85,0.01,,,0.01,100,WxPro DR1,2013-03-17 15:50:00,
2013-03-17 11:55:00,27.3,23.9,30.21,NNW,344,5.0,11.0,87,0.01,,,0.01,204,WxPro DR1,2013-03-17 15:55:00,
2013-03-17 12:00:00,26.5,23.5,30.21,North,11,3.0,10.0,88,0.01,,,0.01,216,WxPro DR1,2013-03-17 16:00:00,
2013-03-17 12:05:00,26.1,23.0,30.22,NE,47,4.0,10.0,88,0.01,,,0.01,359,WxPro DR1,2013-03-17 16:05:00,
2013-03-17 12:10:00,26.1,23.3,30.22,NE,37,4.0,13.0,89,0.01,,,0.01,564,WxPro DR1,2013-03-17 16:10:00,
2013-03-17 12:15:00,26.4,23.6,30.22,NNW,344,3.0,13.0,89,0.01,,,0.01,278,WxPro DR1,2013-03-17 16:15:00,
2013-03-17 12:20:00,26.3,23.5,30.22,North,356,7.0,12.0,89,0.01,,,0.01,227,WxPro DR1,2013-03-17 16:20:00,
2013-03-17 12:25:00,25.8,23.0,30.23,North,356,3.0,11.0,89,0.01,,,0.01,151,WxPro DR1,2013-03-17 16:25:00,
2013-03-17 12:30:00,25.5,22.7,30.23,NNE,12,2.0,11.0,89,0.01,,,0.01,269,WxPro DR1,2013-03-17 16:30:00,
2013-03-17 12:35:00,25.6,23.0,30.23,WNW,300,4.0,4.0,90,0.01,,,0.01,236,WxPro DR1,2013-03-17 16:35:00,
2013-03-17 12:40:00,25.8,22.8,30.23,NNW,327,1.0,7.0,88,0.00,,,0.01,350,WxPro DR1,2013-03-17 16:40:00,
2013-03-17 12:45:00,26.1,23.1,30.23,NE,39,2.0,7.0,88,0.00,,,0.01,733,WxPro DR1,2013-03-17 16:45:00,
2013-03-17 12:50:00,26.9,23.6,30.23,NNW,329,2.0,5.0,87,0.00,,,0.01,819,WxPro DR1,2013-03-17 16:50:00,
2013-03-17 12:55:00,28.1,24.9,30.23,NW,318,1.0,7.0,88,0.00,,,0.01,870,WxPro DR1,2013-03-17 16:55:00,
2013-03-17 13:00:00,28.9,24.4,30.22,North,351,5.0,11.0,83,0.00,,,0.01,374,WxPro DR1,2013-03-17 17:00:00,
2013-03-17 13:05:00,29.6,25.1,30.23,North,1,3.0,11.0,83,0.00,,,0.01,151,WxPro DR1,2013-03-17 17:05:00,
2013-03-17 13:10:00,29.8,24.2,30.23,North,7,11.0,14.0,79,0.00,,,0.01,174,WxPro DR1,2013-03-17 17:10:00,
2013-03-17 13:15:00,28.7,22.5,30.23,North,356,4.0,14.0,78,0.00,,,0.01,227,WxPro DR1,2013-03-17 17:15:00,
2013-03-17 13:20:00,28.2,22.4,30.23,NW,315,2.0,11.0,78,0.00,,,0.01,271,WxPro DR1,2013-03-17 17:20:00,
2013-03-17 13:25:00,28.3,22.3,30.23,North,5,5.0,10.0,78,0.00,,,0.01,206,WxPro DR1,2013-03-17 17:25:00,
2013-03-17 13:30:00,28.1,21.9,30.23,NNW,333,4.0,12.0,77,0.00,,,0.01,192,WxPro DR1,2013-03-17 17:30:00,
2013-03-17 13:35:00,27.8,21.9,30.23,NNE,17,3.0,12.0,78,0.00,,,0.01,200,WxPro DR1,2013-03-17 17:35:00,
2013-03-17 13:40:00,27.6,22.2,30.24,NNE,12,4.0,11.0,80,0.00,,,0.01,236,WxPro DR1,2013-03-17 17:40:00,
2013-03-17 13:45:00,27.5,22.5,30.23,NE,37,6.0,10.0,81,0.00,,,0.01,362,WxPro DR1,2013-03-17 17:45:00,
2013-03-17 13:50:00,27.4,22.4,30.24,NW,320,3.0,8.0,81,0.00,,,0.01,332,WxPro DR1,2013-03-17 17:50:00,
2013-03-17 13:55:00,27.5,22.6,30.23,NW,314,5.0,10.0,82,0.00,,,0.01,323,WxPro DR1,2013-03-17 17:55:00,
2013-03-17 14:00:00,27.9,22.9,30.23,NNW,342,2.0,10.0,81,0.00,,,0.01,179,WxPro DR1,2013-03-17 18:00:00,
2013-03-17 14:05:00,28.2,22.8,30.23,NE,47,1.0,7.0,80,0.00,,,0.01,156,WxPro DR1,2013-03-17 18:05:00,
2013-03-17 14:10:00,27.8,22.2,30.23,WNW,286,6.0,7.0,79,0.00,,,0.01,179,WxPro DR1,2013-03-17 18:10:00,
2013-03-17 14:15:00,27.5,21.9,30.23,NNW,346,4.0,8.0,79,0.00,,,0.01,162,WxPro DR1,2013-03-17 18:15:00,
2013-03-17 14:20:00,27.1,21.5,30.24,NNW,342,5.0,11.0,79,0.00,,,0.01,186,WxPro DR1,2013-03-17 18:20:00,
2013-03-17 14:25:00,27.1,21.2,30.23,NW,323,5.0,12.0,78,0.00,,,0.01,176,WxPro DR1,2013-03-17 18:25:00,
2013-03-17 14:30:00,27.2,21.0,30.23,WSW,245,5.0,12.0,77,0.00,,,0.01,199,WxPro DR1,2013-03-17 18:30:00,
2013-03-17 14:35:00,27.4,20.9,30.23,North,8,3.0,13.0,76,0.00,,,0.01,258,WxPro DR1,2013-03-17 18:35:00,
2013-03-17 14:40:00,27.4,20.6,30.24,NNW,347,4.0,13.0,75,0.00,,,0.01,336,WxPro DR1,2013-03-17 18:40:00,
2013-03-17 14:45:00,27.8,20.6,30.23,NNW,338,2.0,10.0,74,0.00,,,0.01,241,WxPro DR1,2013-03-17 18:45:00,
2013-03-17 14:50:00,27.9,20.7,30.23,WNW,303,1.0,11.0,74,0.00,,,0.01,267,WxPro DR1,2013-03-17 18:50:00,
2013-03-17 14:55:00,28.0,20.7,30.23,North,7,5.0,11.0,73,0.00,,,0.01,232,WxPro DR1,2013-03-17 18:55:00,
2013-03-17 15:00:00,28.2,20.5,30.23,WNW,302,5.0,10.0,72,0.00,,,0.01,206,WxPro DR1,2013-03-17 19:00:00,
2013-03-17 15:05:00,28.4,20.5,30.23,North,351,3.0,10.0,72,0.00,,,0.01,206,WxPro DR1,2013-03-17 19:05:00,
2013-03-17 15:10:00,28.7,20.5,30.23,North,356,2.0,8.0,71,0.00,,,0.01,206,WxPro DR1,2013-03-17 19:10:00,
2013-03-17 15:15:00,28.8,20.2,30.23,NE,42,4.0,8.0,70,0.00,,,0.01,202,WxPro DR1,2013-03-17 19:15:00,
2013-03-17 15:20:00,28.8,20.3,30.23,NNW,347,3.0,7.0,70,0.00,,,0.01,220,WxPro DR1,2013-03-17 19:20:00,
2013-03-17 15:25:00,28.9,19.6,30.23,NNE,13,2.0,11.0,68,0.00,,,0.01,264,WxPro DR1,2013-03-17 19:25:00,
2013-03-17 15:30:00,28.9,19.8,30.23,NNW,335,4.0,11.0,68,0.00,,,0.01,422,WxPro DR1,2013-03-17 19:30:00,
2013-03-17 15:35:00,29.2,19.6,30.23,NW,323,2.0,9.0,67,0.00,,,0.01,429,WxPro DR1,2013-03-17 19:35:00,
2013-03-17 15:40:00,29.5,19.7,30.23,West,280,7.0,12.0,67,0.00,,,0.01,448,WxPro DR1,2013-03-17 19:40:00,
2013-03-17 15:45:00,29.5,19.8,30.24,NNW,328,5.0,12.0,67,0.00,,,0.01,230,WxPro DR1,2013-03-17 19:45:00,
2013-03-17 15:50:00,29.4,18.9,30.24,NNW,327,2.0,9.0,64,0.00,,,0.01,313,WxPro DR1,2013-03-17 19:50:00,
2013-03-17 15:55:00,29.1,18.9,30.24,NNW,330,3.0,7.0,65,0.00,,,0.01,225,WxPro DR1,2013-03-17 19:55:00,
2013-03-17 16:00:00,29.2,19.2,30.24,NNW,346,2.0,7.0,66,0.00,,,0.01,230,WxPro DR1,2013-03-17 20:00:00,
2013-03-17 16:05:00,29.4,19.4,30.24,NW,321,6.0,10.0,66,0.00,,,0.01,221,WxPro DR1,2013-03-17 20:05:00,
2013-03-17 16:10:00,29.4,19.1,30.24,North,6,5.0,10.0,65,0.00,,,0.01,230,WxPro DR1,2013-03-17 20:10:00,
2013-03-17 16:15:00,29.3,18.9,30.24,NNW,345,2.0,9.0,65,0.00,,,0.01,190,WxPro DR1,2013-03-17 20:15:00,
2013-03-17 16:20:00,29.3,19.0,30.24,WNW,303,3.0,5.0,65,0.00,,,0.01,294,WxPro DR1,2013-03-17 20:20:00,
2013-03-17 16:25:00,29.5,19.2,30.24,WNW,286,4.0,12.0,65,0.00,,,0.01,241,WxPro DR1,2013-03-17 20:25:00,
2013-03-17 16:30:00,29.5,18.8,30.24,NW,311,4.0,12.0,64,0.00,,,0.01,239,WxPro DR1,2013-03-17 20:30:00,
2013-03-17 16:35:00,29.6,18.7,30.24,West,280,1.0,10.0,63,0.00,,,0.01,582,WxPro DR1,2013-03-17 20:35:00,
2013-03-17 16:40:00,30.3,18.5,30.24,West,271,5.0,10.0,61,0.00,,,0.01,174,WxPro DR1,2013-03-17 20:40:00,
2013-03-17 16:45:00,29.8,18.0,30.25,North,351,2.0,12.0,61,0.00,,,0.01,193,WxPro DR1,2013-03-17 20:45:00,
2013-03-17 16:50:00,29.3,18.3,30.25,North,351,7.0,12.0,63,0.00,,,0.01,149,WxPro DR1,2013-03-17 20:50:00,
2013-03-17 16:55:00,29.2,17.9,30.25,WNW,296,1.0,7.0,62,0.00,,,0.01,130,WxPro DR1,2013-03-17 20:55:00,
2013-03-17 17:00:00,29.0,17.9,30.25,NNW,340,2.0,7.0,63,0.00,,,0.01,172,WxPro DR1,2013-03-17 21:00:00,
2013-03-17 17:05:00,29.0,18.0,30.25,NW,315,1.0,7.0,63,0.00,,,0.01,188,WxPro DR1,2013-03-17 21:05:00,
2013-03-17 17:10:00,29.5,17.8,30.25,NW,326,2.0,7.0,61,0.00,,,0.01,508,WxPro DR1,2013-03-17 21:10:00,
2013-03-17 17:15:00,30.0,17.9,30.25,NNW,345,4.0,9.0,60,0.00,,,0.01,457,WxPro DR1,2013-03-17 21:15:00,
2013-03-17 17:20:00,30.2,18.0,30.25,NNW,340,3.0,9.0,60,0.00,,,0.01,155,WxPro DR1,2013-03-17 21:20:00,
2013-03-17 17:25:00,30.3,17.9,30.25,NNE,12,3.0,9.0,59,0.00,,,0.01,373,WxPro DR1,2013-03-17 21:25:00,
2013-03-17 17:30:00,30.3,17.3,30.25,WNW,294,4.0,9.0,58,0.00,,,0.01,352,WxPro DR1,2013-03-17 21:30:00,
2013-03-17 17:35:00,30.3,17.0,30.26,NW,322,3.0,10.0,57,0.00,,,0.01,151,WxPro DR1,2013-03-17 21:35:00,
2013-03-17 17:40:00,29.8,17.3,30.26,NNW,336,2.0,10.0,59,0.00,,,0.01,315,WxPro DR1,2013-03-17 21:40:00,
2013-03-17 17:45:00,29.7,16.7,30.25,WNW,296,4.0,7.0,58,0.00,,,0.01,281,WxPro DR1,2013-03-17 21:45:00,
2013-03-17 17:50:00,29.8,17.0,30.26,North,356,4.0,9.0,59,0.00,,,0.01,255,WxPro DR1,2013-03-17 21:50:00,
2013-03-17 17:55:00,29.6,15.9,30.26,North,11,0.0,9.0,56,0.00,,,0.01,227,WxPro DR1,2013-03-17 21:55:00,
2013-03-17 18:00:00,29.7,15.5,30.27,WNW,302,2.0,10.0,55,0.00,,,0.01,213,WxPro DR1,2013-03-17 22:00:00,
2013-03-17 18:05:00,29.3,15.6,30.27,NNW,338,2.0,10.0,56,0.00,,,0.01,195,WxPro DR1,2013-03-17 22:05:00,
2013-03-17 18:10:00,29.3,15.6,30.27,NNW,334,1.0,7.0,56,0.00,,,0.01,174,WxPro DR1,2013-03-17 22:10:00,
2013-03-17 18:15:00,29.5,14.9,30.27,WNW,299,2.0,11.0,54,0.00,,,0.01,155,WxPro DR1,2013-03-17 22:15:00,
2013-03-17 18:20:00,29.2,15.1,30.27,North,1,2.0,11.0,55,0.00,,,0.01,134,WxPro DR1,2013-03-17 22:20:00,
2013-03-17 18:25:00,28.9,14.8,30.28,NW,319,3.0,11.0,55,0.00,,,0.01,114,WxPro DR1,2013-03-17 22:25:00,
2013-03-17 18:30:00,28.8,14.9,30.28,WNW,297,0.0,11.0,55,0.00,,,0.01,97,WxPro DR1,2013-03-17 22:30:00,
2013-03-17 18:35:00,28.7,14.2,30.28,NW,326,2.0,10.0,54,0.00,,,0.01,56,WxPro DR1,2013-03-17 22:35:00,
2013-03-17 18:40:00,28.2,13.7,30.28,WNW,298,2.0,10.0,54,0.00,,,0.01,56,WxPro DR1,2013-03-17 22:40:00,
2013-03-17 18:45:00,27.9,13.5,30.28,NW,305,3.0,6.0,54,0.00,,,0.01,37,WxPro DR1,2013-03-17 22:45:00,
2013-03-17 18:50:00,27.6,13.6,30.29,NW,308,2.0,6.0,55,0.00,,,0.01,30,WxPro DR1,2013-03-17 22:50:00,
2013-03-17 18:55:00,27.4,13.3,30.29,North,356,1.0,6.0,55,0.00,,,0.01,21,WxPro DR1,2013-03-17 22:55:00,
2013-03-17 19:00:00,27.1,13.5,30.29,NNW,332,2.0,7.0,56,0.00,,,0.01,19,WxPro DR1,2013-03-17 23:00:00,
2013-03-17 19:05:00,26.9,13.5,30.29,NNW,328,1.0,7.0,56,0.00,,,0.01,14,WxPro DR1,2013-03-17 23:05:00,
2013-03-17 19:10:00,26.6,13.4,30.29,WNW,303,2.0,8.0,57,0.00,,,0.01,11,WxPro DR1,2013-03-17 23:10:00,
2013-03-17 19:15:00,26.4,13.6,30.30,NW,325,1.0,8.0,58,0.00,,,0.01,7,WxPro DR1,2013-03-17 23:15:00,
2013-03-17 19:20:00,26.2,13.4,30.30,North,351,1.0,5.0,58,0.00,,,0.01,0,WxPro DR1,2013-03-17 23:20:00,
2013-03-17 19:25:00,26.0,13.2,30.30,NNW,340,0.0,5.0,58,0.00,,,0.01,0,WxPro DR1,2013-03-17 23:25:00,
2013-03-17 19:30:00,25.8,13.1,30.30,NNW,342,3.0,9.0,58,0.00,,,0.01,0,WxPro DR1,2013-03-17 23:30:00,
2013-03-17 19:35:00,25.7,12.6,30.30,NNW,337,3.0,9.0,57,0.00,,,0.01,0,WxPro DR1,2013-03-17 23:35:00,
2013-03-17 19:40:00,25.5,12.4,30.30,NNW,333,1.0,7.0,57,0.00,,,0.01,0,WxPro DR1,2013-03-17 23:40:00,
2013-03-17 19:45:00,25.4,12.3,30.30,NNW,331,0.0,4.0,57,0.00,,,0.01,0,WxPro DR1,2013-03-17 23:45:00,
2013-03-17 19:50:00,25.2,12.1,30.31,North,351,3.0,4.0,57,0.00,,,0.01,0,WxPro DR1,2013-03-17 23:50:00,
2013-03-17 19:55:00,25.0,11.6,30.31,NNW,334,2.0,6.0,56,0.00,,,0.01,0,WxPro DR1,2013-03-17 23:55:00,
2013-03-17 20:00:00,25.0,11.9,30.31,NNW,334,2.0,6.0,57,0.00,,,0.01,0,WxPro DR1,2013-03-18 00:00:00,
2013-03-17 20:05:00,24.9,11.4,30.31,NNW,336,0.0,4.0,56,0.00,,,0.01,0,WxPro DR1,2013-03-18 00:05:00,
2013-03-17 20:10:00,24.7,11.7,30.31,NNW,336,1.0,4.0,57,0.00,,,0.01,0,WxPro DR1,2013-03-18 00:10:00,
2013-03-17 20:15:00,24.5,11.3,30.32,NNW,334,1.0,3.0,57,0.00,,,0.01,0,WxPro DR1,2013-03-18 00:15:00,
2013-03-17 20:20:00,24.4,10.9,30.32,NNW,333,1.0,6.0,56,0.00,,,0.01,0,WxPro DR1,2013-03-18 00:20:00,
2013-03-17 20:25:00,24.3,10.9,30.32,NNW,333,1.0,6.0,56,0.00,,,0.01,0,WxPro DR1,2013-03-18 00:25:00,
2013-03-17 20:30:00,24.2,10.8,30.32,NW,322,1.0,5.0,56,0.00,,,0.01,0,WxPro DR1,2013-03-18 00:30:00,
2013-03-17 20:35:00,24.2,10.8,30.32,NW,323,0.0,5.0,56,0.00,,,0.01,0,WxPro DR1,2013-03-18 00:35:00,
2013-03-17 20:40:00,24.0,10.6,30.32,NNW,327,0.0,5.0,56,0.00,,,0.01,0,WxPro DR1,2013-03-18 00:40:00,
2013-03-17 20:45:00,24.0,10.2,30.32,NW,324,2.0,5.0,55,0.00,,,0.01,0,WxPro DR1,2013-03-18 00:45:00,
2013-03-17 20:50:00,24.0,10.2,30.32,NNW,329,1.0,5.0,55,0.00,,,0.01,0,WxPro DR1,2013-03-18 00:50:00,
2013-03-17 20:55:00,23.9,10.1,30.32,NNW,333,1.0,5.0,55,0.00,,,0.01,0,WxPro DR1,2013-03-18 00:55:00,
2013-03-17 21:00:00,23.9,10.5,30.32,NNW,333,1.0,5.0,56,0.00,,,0.01,0,WxPro DR1,2013-03-18 01:00:00,
2013-03-17 21:05:00,23.8,10.4,30.32,NNW,333,0.0,4.0,56,0.00,,,0.01,0,WxPro DR1,2013-03-18 01:05:00,
2013-03-17 21:10:00,23.6,10.2,30.32,NNW,333,0.0,4.0,56,0.00,,,0.01,0,WxPro DR1,2013-03-18 01:10:00,
2013-03-17 21:15:00,23.4,10.4,30.32,NNW,334,0.0,1.0,57,0.00,,,0.01,0,WxPro DR1,2013-03-18 01:15:00,
2013-03-17 21:20:00,23.1,10.6,30.32,NNW,334,0.0,0.0,58,0.00,,,0.01,0,WxPro DR1,2013-03-18 01:20:00,
2013-03-17 21:25:00,22.8,10.6,30.32,NNW,333,0.0,0.0,59,0.00,,,0.01,0,WxPro DR1,2013-03-18 01:25:00,
2013-03-17 21:30:00,22.4,10.7,30.32,NNW,333,0.0,0.0,60,0.00,,,0.01,0,WxPro DR1,2013-03-18 01:30:00,
2013-03-17 21:35:00,22.1,10.7,30.32,NNW,333,0.0,0.0,61,0.00,,,0.01,0,WxPro DR1,2013-03-18 01:35:00,
2013-03-17 21:40:00,21.7,10.7,30.32,NNW,333,0.0,0.0,62,0.00,,,0.01,0,WxPro DR1,2013-03-18 01:40:00,
2013-03-17 21:45:00,21.4,10.6,30.32,NNW,333,0.0,0.0,63,0.00,,,0.01,0,WxPro DR1,2013-03-18 01:45:00,
2013-03-17 21:50:00,21.0,10.8,30.33,NNW,333,0.0,0.0,64,0.00,,,0.01,0,WxPro DR1,2013-03-18 01:50:00,
2013-03-17 21:55:00,20.7,11.2,30.33,NNW,334,0.0,1.0,66,0.00,,,0.01,0,WxPro DR1,2013-03-18 01:55:00,
2013-03-17 22:00:00,20.5,11.0,30.33,NNW,333,0.0,1.0,66,0.00,,,0.01,0,WxPro DR1,2013-03-18 02:00:00,
2013-03-17 22:05:00,20.3,10.8,30.33,NNW,333,0.0,0.0,66,0.00,,,0.01,0,WxPro DR1,2013-03-18 02:05:00,
2013-03-17 22:10:00,20.1,10.7,30.34,NNW,334,0.0,0.0,66,0.00,,,0.01,0,WxPro DR1,2013-03-18 02:10:00,
2013-03-17 22:15:00,19.9,10.8,30.34,NNW,333,0.0,0.0,67,0.00,,,0.01,0,WxPro DR1,2013-03-18 02:15:00,
2013-03-17 22:20:00,19.8,10.6,30.34,NNW,333,0.0,0.0,67,0.00,,,0.01,0,WxPro DR1,2013-03-18 02:20:00,
2013-03-17 22:25:00,19.8,11.0,30.34,NNW,333,0.0,0.0,68,0.00,,,0.01,0,WxPro DR1,2013-03-18 02:25:00,
2013-03-17 22:30:00,19.7,10.9,30.34,NNW,333,0.0,0.0,68,0.00,,,0.01,0,WxPro DR1,2013-03-18 02:30:00,
2013-03-17 22:35:00,19.6,11.1,30.34,NNW,334,0.0,0.0,69,0.00,,,0.01,0,WxPro DR1,2013-03-18 02:35:00,
2013-03-17 22:40:00,19.2,11.2,30.34,NNW,333,0.0,1.0,70,0.00,,,0.01,0,WxPro DR1,2013-03-18 02:40:00,
2013-03-17 22:45:00,19.0,11.4,30.34,NNW,333,0.0,1.0,72,0.00,,,0.01,0,WxPro DR1,2013-03-18 02:45:00,
2013-03-17 22:50:00,18.8,11.6,30.34,NNW,333,0.0,1.0,73,0.00,,,0.01,0,WxPro DR1,2013-03-18 02:50:00,
2013-03-17 22:55:00,18.6,11.7,30.34,NNW,333,0.0,0.0,74,0.00,,,0.01,0,WxPro DR1,2013-03-18 02:55:00,
2013-03-17 23:00:00,18.5,11.9,30.34,NNW,333,0.0,0.0,75,0.00,,,0.01,0,WxPro DR1,2013-03-18 03:00:00,
2013-03-17 23:05:00,18.4,11.8,30.34,NNW,333,0.0,0.0,75,0.00,,,0.01,0,WxPro DR1,2013-03-18 03:05:00,
2013-03-17 23:10:00,18.2,11.8,30.34,NNW,333,0.0,0.0,75,0.00,,,0.01,0,WxPro DR1,2013-03-18 03:10:00,
2013-03-17 23:15:00,18.1,12.2,30.34,NNW,334,0.0,0.0,77,0.00,,,0.01,0,WxPro DR1,2013-03-18 03:15:00,
2013-03-17 23:20:00,18.1,12.1,30.34,NNW,333,0.0,0.0,77,0.00,,,0.01,0,WxPro DR1,2013-03-18 03:20:00,
2013-03-17 23:25:00,18.1,12.4,30.35,NNW,333,0.0,0.0,78,0.00,,,0.01,0,WxPro DR1,2013-03-18 03:25:00,
2013-03-17 23:30:00,18.0,12.3,30.34,NNW,334,0.0,0.0,78,0.00,,,0.01,0,WxPro DR1,2013-03-18 03:30:00,
2013-03-17 23:35:00,17.9,12.5,30.35,NNW,333,0.0,0.0,79,0.00,,,0.01,0,WxPro DR1,2013-03-18 03:35:00,
2013-03-17 23:40:00,17.9,12.8,30.35,NNW,333,0.0,0.0,80,0.00,,,0.01,0,WxPro DR1,2013-03-18 03:40:00,
2013-03-17 23:45:00,17.9,12.8,30.35,NNW,333,0.0,0.0,80,0.00,,,0.01,0,WxPro DR1,2013-03-18 03:45:00,
2013-03-17 23:50:00,17.8,12.7,30.35,NNW,334,0.0,0.0,80,0.00,,,0.01,0,WxPro DR1,2013-03-18 03:50:00,
2013-03-17 23:55:00,17.8,13.0,30.34,NNW,333,0.0,0.0,81,0.00,,,0.01,0,WxPro DR1,2013-03-18 03:55:00,